Regional Weather Roundup
Issued by NWS

Home | Current Version | Previous Version | Text Only | Print | Product List | Glossary Off
Versions: 1 2 3 4 5 6 7 8 9 10 11 12 13 14 15 16 17 18 19 20 21 22 23 24 25 26 27 28 29 30 31 32 33 34 35 36 37 38 39 40 41 42 43 44 45 46 47 48 49

000
ASUS45 KBOU 201307
RWRCO

WEATHER ROUNDUP FOR COLORADO
NATIONAL WEATHER SERVICE DENVER/BOULDER CO
700 AM MDT SAT SEP 20 2014

NOTE: "FAIR" INDICATES FEW OR NO CLOUDS BELOW 12000 FEET WITH NO
SIGNIFICANT WEATHER AND/OR OBSTRUCTIONS TO VISIBILITY.

COZ001>005-013-030-031-201400-
...NORTHWEST COLORADO...

CITY           SKY/WX    TMP DP  RH WIND       PRES   REMARKS
CRAIG          CLEAR     39  37  92 CALM      30.30R
HAYDEN         CLEAR     45  37  76 E7        30.30R
MEEKER         NOT AVBL
MOUNT WERNER   NOT AVBL
STEAMBOAT SPGS CLEAR     43  38  82 CALM      30.32R
WALDEN         PTCLDY    34  32  93 SE8       30.38R WCI  27
$$

COZ006>008-011-201400-
...WEST CENTRAL VALLEYS...

CITY           SKY/WX    TMP DP  RH WIND       PRES   REMARKS
GRAND JUNCTION CLEAR     59  44  57 E7        30.13R
MONTROSE       CLEAR     53  44  71 S7        30.22R
EAGLE          CLEAR     45  41  87 CALM      30.34R
RIFLE          CLEAR     50  43  77 SE7       30.23R
DELTA          CLEAR     55  44  65 CALM      30.19R
NUCLA          CLEAR     54  43  66 E6        30.22R
$$

COZ017>023-064>068-201400-
...SOUTHWEST COLORADO...

CITY           SKY/WX    TMP DP  RH WIND       PRES   REMARKS
DURANGO        CLEAR     49  42  77 CALM      30.22R
CORTEZ         CLEAR     46  43  89 CALM      30.17R
PAGOSA SPRINGS CLEAR     46  41  82 CALM      30.31R
TELLURIDE      NOT AVBL
WOLF CREEK PAS CLEAR     45  32  61 NE20      30.59R
$$

COZ009-010-012-014-032>034-037-058>063-201400-
...CENTRAL COLORADO...

CITY           SKY/WX    TMP DP  RH WIND       PRES   REMARKS
ASPEN          CLEAR     47  39  74 S8        30.36R
BUENA VISTA    CLEAR     49  37  65 W3        30.38R
COPPER MTN     CLEAR     46  36  66 S7        30.63R
BERTHOUD PASS  FAIR      37  36  93 NW14      30.66R
COTTONWOOD PAS CLEAR     57  34  41 CALM      30.48R
GUNNISON       CLEAR     39  30  70 CALM      30.40R
KREMMLING      CLEAR     37  34  87 CALM      30.39R
LEADVILLE      CLEAR     37  34  89 NE7       30.49R
MONARCH PASS   CLEAR     45  32  61 E13       30.71S
SALIDA         CLEAR     48  38  68 W3        30.42R
SUNLIGHT       CLEAR     48  39  71 NE5       30.55R
WILKERSON PASS NOT AVBL
$$

COZ069>075-201400-
...SAN LUIS VALLEY/SANGRE DE CRISTO MOUNTAINS...

CITY           SKY/WX    TMP DP  RH WIND       PRES   REMARKS
ALAMOSA        PTCLDY    42  37  82 NE7       30.32R
LA VETA PASS   CLEAR     48  32  53 N3        30.49R
SAGUACHE       NOT AVBL
$$

COZ035-036-038>040-201400-
...NORTHERN COLORADO FRONT RANGE...

CITY           SKY/WX    TMP DP  RH WIND       PRES   REMARKS
DENVER INTL AP PTCLDY    54  46  74 NE8       30.20R
DMNS CITY PARK   N/A     57  48  72 NW3       30.20R
AURORA         PTCLDY    56  46  69 S3        30.21R
FRONT RANGE AP CLEAR     55  46  71 NW3       30.20R
ERIE MUNI ARPT CLEAR     52  48  86 CALM      30.20R
BOULDER MUN AP CLEAR     59  45  58 CALM      30.20R
CENTENNIAL     PTCLDY    53  45  74 CALM      30.21R
BROOMFIELD     PTCLDY    61  46  59 N10       30.22R
FORT COLLINS   CLEAR     55  45  67 N6        30.21R
LONGMONT       CLEAR     54  47  77 CALM      30.21R HAZE
$$

COZ041-046-047-076>085-087-088-201400-
...PIKES PEAK/PALMER DIVIDE AND SOUTHERN FOOTHILLS...

CITY           SKY/WX    TMP DP  RH WIND       PRES   REMARKS
COLO. SPRINGS  CLEAR     62  43  49 VRB3      30.22R
A. F. ACADEMY  CLEAR     54  43  66 N10       30.25R
ELLICOTT       NOT AVBL
FALCON         CLEAR     61  42  49 N9        30.26R
FORT CARSON    CLEAR     59  44  57 NW9       30.19R
LIMON          CLEAR     54  48  80 W6        30.17R
MONUMENT HILL  CLEAR     50  41  71 W7        30.27R
TRINIDAD       CLEAR     56  47  71 W14       30.17R
$$

COZ042>045-048>051-090-091-201400-
...NORTHEAST COLORADO...

CITY           SKY/WX    TMP DP  RH WIND       PRES   REMARKS
GREELEY ARPT   CLEAR     55  45  67 N13       30.18R
AKRON          CLEAR     54  51  90 N12       30.14R
BURLINGTON     CLEAR     61  52  72 NW9       30.08R
WRAY           CLEAR     61  54  76 NW8       30.09R
STERLING       CLEAR     55  54  94 N7        30.13R
HOLYOKE        CLEAR     59  54  82 N7        30.10R
FORT MORGAN    CLEAR     57  48  72 N16       30.16R
$$

COZ086-089-092>099-201400-
...SOUTHEAST COLORADO...

CITY           SKY/WX    TMP DP  RH WIND       PRES   REMARKS
PUEBLO         CLEAR     56  44  64 W7        30.11R
LA JUNTA       CLEAR     55  48  77 W9        30.07R
LAMAR          CLEAR     53  52  96 W5        30.02R
SPRINGFIELD      N/A     58  57  97 NW8       30.05R
$$



USA.gov is the U.S. government's official web portal to all federal, state and local government web resources and services.